Wind_Speed
13 2 6 13 12 7 5 5 8 6 6 8 14 9 12 18 15 12 8 21 21 18 16 16 22 24 21 26 24 19 21 19 20 22 19 18 19 15 13 11 9 6 7 6
4 7 13 14 15 10 10 9 11 8 11 17 10 10 10 17 20 21 18 18 22 16 9 24 24 25 26 28 23 23 20 20 19 20 18 18 20 16 12 12 8 4 12 12
9 11 15 15 13 8 4 6 6 7 12 9 7 5 10 10 11 15 21 20 17 17 22 20 25 30 28 24 23 21 24 24 21 23 21 18 19 16 15 12 9 7 9 12
8 14 10 11 10 6 5 11 9 5 5 5 9 4 8 12 12 15 22 25 26 16 13 21 25 25 30 26 21 18 22 25 24 25 24 21 20 20 18 14 9 4 7 12
9 9 10 2 7 5 1 6 2 6 4 4 6 2 5 12 13 17 25 25 25 27 18 27 24 22 31 26 22 20 16 23 26 28 23 19 18 19 17 15 12 9 4 7
9 12 3 2 6 8 11 3 4 4 1 2 4 1 2 9 15 17 22 27 31 28 25 21 29 22 27 28 26 22 18 25 30 30 23 22 21 17 16 13 14 15 8 10
9 9 4 5 6 10 8 3 3 2 3 4 6 5 6 13 10 12 22 27 33 34 30 29 21 25 25 34 30 24 22 28 29 30 26 27 24 20 12 15 13 12 12 8
8 5 8 8 6 4 7 6 5 1 4 6 7 5 3 6 23 13 19 30 31 31 32 37 31 29 27 36 34 28 26 20 27 29 30 26 26 23 14 19 16 11 11 12
6 6 8 7 5 1 8 4 9 4 6 4 1 5 4 13 15 24 23 19 32 35 36 35 42 30 35 37 39 35 28 23 21 28 30 28 26 24 22 19 17 16 13 12
5 3 2 5 8 6 6 6 6 5 4 3 3 2 5 10 17 16 23 31 21 33 33 37 40 32 39 39 42 37 30 25 18 24 29 30 27 25 23 20 20 18 14 11
4 2 4 4 6 5 6 6 5 6 4 2 3 5 4 5 11 16 26 37 37 28 34 41 42 39 40 34 36 38 33 29 23 19 27 28 28 25 26 24 23 21 16 14
6 2 4 3 4 6 4 4 5 4 2 2 4 5 4 4 10 17 31 40 4 4 24 33 33 39 44 33 36 34 35 33 25 16 20 25 23 23 28 25 24 21 24 20
5 2 3 8 9 6 4 3 4 3 5 6 5 3 1 4 7 19 24 24 11 3 9 17 19 26 29 35 37 22 33 35 27 19 18 22 21 23 21 22 20 20 18 21
1 2 4 4 6 3 2 2 3 4 1 3 1 3 3 2 6 13 13 28 8 10 10 13 15 9 10 15 28 32 7 30 25 22 21 23 26 24 22 18 19 17 14 15
3 4 5 9 7 7 6 8 8 7 5 5 9 8 6 7 7 4 6 11 9 9 7 6 3 7 8 8 15 25 20 3 18 14 26 26 26 26 27 24 21 18 18 17
4 4 5 6 7 9 7 9 9 8 4 3 3 1 4 9 4 3 5 7 11 14 10 8 4 12 7 2 6 23 19 25 13 15 17 24 26 28 26 25 22 19 22 19
0 3 3 5 5 1 4 6 7 9 6 5 4 6 5 2 3 3 6 1 4 5 10 8 7 7 7 4 6 3 26 37 10 18 13 22 32 32 27 25 25 25 23 20
2 1 2 3 6 5 1 2 5 6 9 9 10 4 8 6 11 9 5 5 2 1 3 6 8 8 8 4 3 3 7 9 13 19 20 28 13 30 32 30 26 25 24 23
4 3 1 3 3 2 2 2 4 3 6 9 10 13 9 7 9 6 4 2 2 5 3 5 6 3 2 1 4 4 2 2 7 9 13 19 16 23 25 26 23 23 22 20
5 3 5 1 2 4 6 3 4 12 8 21 21 13 6 11 3 3 8 5 5 4 3 3 6 9 10 11 13 10 8 8 8 7 18 19 17 23 22 24 25 24 23 16
1 2 2 3 5 4 3 4 8 3 4 27 19 12 12 1 6 12 12 11 7 4 3 3 3 5 7 10 9 9 11 9 5 3 7 11 22 21 19 21 17 14 12 11
5 5 4 3 2 3 2 5 5 4 25 35 32 25 18 16 13 12 12 10 6 1 3 3 5 7 6 5 3 3 6 6 5 5 5 5 11 7 14 17 15 12 8 7
2 5 3 1 5 6 3 6 9 7 19 29 32 27 23 25 16 13 12 12 8 2 1 2 4 8 6 4 3 3 5 6 4 3 2 5 10 11 5 6 5 3 4 10
6 7 3 3 4 3 6 12 8 7 25 21 15 16 11 26 17 14 14 14 10 4 3 1 3 4 4 4 2 2 3 3 2 6 8 7 5 6 6 7 6 7 7 5
4 8 3 2 2 5 5 6 10 6 19 20 20 16 13 11 14 16 15 12 8 1 2 1 2 4 6 3 1 4 2 1 3 7 9 8 7 9 8 4 7 7 5 4
1 2 2 3 6 6 1 5 6 10 14 15 15 14 10 8 8 10 9 6 3 3 4 3 4 4 5 5 4 6 5 3 3 4 4 4 3 4 4 5 6 7 5 3
Wind_Direction
231 184 227 242 246 201 202 167 149 193 211 181 202 210 188 203 204 183 188 170 171 202 182 178 172 186 180 171 175 174 171 173 168 171 165 171 176 167 176 203 206 169 152 165
284 225 249 250 254 237 188 189 103 62 322 209 199 212 170 187 204 189 187 189 192 193 209 194 168 183 185 178 185 175 177 174 180 182 170 173 177 166 185 188 193 226 182 170
211 238 228 255 272 276 47 261 141 161 218 231 178 213 162 199 194 205 202 200 176 189 193 173 174 176 184 187 187 191 186 185 184 174 175 170 172 180 188 205 223 260 215 174
218 267 252 231 267 266 192 152 124 173 201 227 173 251 186 171 194 201 219 196 200 191 195 185 186 186 194 194 196 191 196 197 189 181 184 188 194 191 200 206 221 198 171 186
248 248 275 217 240 334 217 89 173 185 237 259 256 209 225 148 210 209 208 197 201 204 207 183 206 186 205 199 197 192 184 198 188 184 182 191 188 200 205 212 201 205 199 196
261 292 353 8 308 299 285 144 218 159 148 352 339 79 161 179 216 209 206 203 192 196 202 221 197 200 198 203 194 188 182 177 173 179 185 190 194 198 204 198 205 206 201 187
236 239 197 222 235 264 262 359 332 341 13 226 357 11 233 210 225 212 204 200 194 190 195 212 203 210 201 204 195 189 184 184 187 189 186 192 202 196 199 202 194 209 225 213
228 238 166 220 215 227 231 198 178 177 151 278 359 5 276 36 21 302 228 201 196 195 195 207 204 207 197 199 201 197 191 191 202 199 195 192 197 200 208 200 200 205 208 219
344 65 179 175 187 237 284 254 223 233 212 137 143 330 333 8 5 6 15 197 193 198 200 209 201 211 200 197 203 202 201 195 200 205 200 198 199 205 198 184 188 198 214 233
303 307 164 187 169 217 208 260 355 6 17 337 314 152 256 349 330 348 351 328 295 194 196 203 203 202 204 212 204 204 206 199 194 204 208 202 204 208 197 195 206 213 218 209
285 68 334 120 21 32 356 338 36 99 43 124 23 299 223 360 341 353 333 324 291 239 211 196 195 197 195 202 200 207 206 205 196 198 208 207 209 212 208 207 207 204 204 196
16 325 25 129 23 27 323 72 129 106 216 142 170 254 138 143 28 7 332 313 135 252 232 193 202 197 198 201 193 207 213 207 202 203 205 201 208 211 212 220 217 211 208 218
341 341 20 350 356 345 110 316 89 29 134 185 161 259 271 322 37 1 315 235 99 349 124 154 156 176 191 196 196 188 216 214 202 196 207 205 205 206 213 215 213 221 220 222
71 253 210 203 181 174 226 205 124 162 129 187 336 253 275 120 224 181 283 350 79 86 73 131 164 169 165 183 206 187 193 201 203 201 202 207 218 220 214 219 226 221 215 212
158 274 280 283 189 173 193 229 214 186 188 158 187 165 223 199 224 319 359 321 40 56 43 33 120 143 206 214 179 200 298 187 199 200 213 216 222 222 218 218 221 226 227 241
209 247 288 295 339 182 218 78 66 73 356 45 204 100 180 197 207 278 35 330 355 63 67 59 105 224 182 263 340 231 250 278 261 213 242 235 227 224 219 220 218 220 224 231
73 82 41 305 354 328 286 163 179 180 181 189 129 220 126 303 164 48 100 18 358 46 116 118 93 112 122 110 30 268 242 254 252 252 265 306 222 222 217 220 220 221 229 234
142 239 106 276 323 302 205 259 242 186 123 89 55 110 214 158 118 97 65 57 67 106 122 142 135 130 127 147 45 14 236 225 250 272 265 293 223 208 218 225 230 237 238 239
227 163 161 139 271 255 76 14 9 85 146 136 166 239 219 166 114 104 105 100 106 156 208 206 209 232 255 207 243 269 285 125 217 201 220 239 236 232 230 225 219 225 232 236
291 131 122 75 266 300 224 256 237 157 138 166 178 193 168 159 137 216 149 111 94 54 103 220 262 262 266 265 266 248 248 237 209 219 223 227 230 226 219 220 215 214 216 216
46 22 162 243 228 102 281 269 300 15 199 165 150 145 117 12 253 159 144 131 114 100 69 12 312 283 290 271 272 279 278 288 302 248 204 228 226 236 228 218 211 193 196 204
194 161 210 240 258 139 303 53 90 200 124 144 154 153 143 148 151 155 163 149 149 166 359 22 330 317 328 316 297 294 303 333 314 262 228 231 230 214 190 194 192 191 197 201
180 160 165 95 183 188 148 131 140 53 135 137 147 152 142 155 160 155 168 155 161 176 136 26 326 324 344 352 342 309 285 310 305 257 193 189 209 239 238 237 219 252 266 250
360 38 93 88 50 198 173 139 75 74 109 109 121 119 136 148 154 157 156 163 141 128 72 30 305 3 8 24 288 255 291 313 221 216 204 185 181 177 167 298 233 240 263 220
264 338 82 92 60 112 107 127 146 113 120 120 108 111 92 114 127 148 141 145 149 194 142 147 17 50 61 33 94 182 203 58 98 161 192 223 250 255 260 205 226 218 197 177
259 330 161 215 154 93 114 132 125 148 140 137 136 127 129 120 118 129 137 145 96 108 128 78 50 33 67 66 86 155 177 192 202 193 190 179 160 192 189 180 193 197 208 231
Height
1493 1501 1507 1495 1486 1485 1485 1498 1505 1516 1506 1511 1510 1511 1512 1513 1519 1523 1525 1524 1527 1529 1537 1538 1543 1545 1550 1551 1555 1558 1561 1564 1568 1571 1575 1579 1581 1584 1585 1584 1587 1591 1595 1594
1498 1505 1488 1481 1479 1480 1483 1493 1506 1520 1513 1520 1506 1508 1506 1510 1510 1514 1521 1525 1525 1527 1533 1539 1541 1543 1546 1551 1553 1556 1561 1563 1567 1571 1575 1578 1581 1583 1584 1584 1587 1589 1593 1595
1498 1488 1479 1479 1478 1479 1482 1490 1499 1508 1501 1493 1501 1509 1508 1510 1511 1515 1517 1521 1526 1529 1531 1537 1540 1542 1546 1550 1552 1554 1559 1563 1566 1571 1575 1578 1582 1583 1583 1583 1585 1588 1590 1595
1486 1475 1477 1477 1479 1476 1491 1479 1484 1491 1502 1522 1494 1531 1508 1507 1510 1510 1513 1515 1521 1525 1527 1532 1537 1543 1543 1548 1551 1553 1557 1561 1564 1569 1573 1576 1579 1580 1581 1582 1583 1585 1586 1589
1487 1478 1477 1475 1476 1470 1482 1473 1480 1484 1497 1499 1497 1511 1502 1508 1512 1504 1501 1506 1514 1519 1525 1528 1534 1540 1543 1545 1548 1551 1554 1557 1562 1567 1570 1573 1577 1579 1581 1582 1583 1584 1586 1587
1477 1471 1470 1470 1470 1471 1469 1476 1479 1483 1498 1526 1504 1513 1516 1508 1494 1494 1498 1503 1508 1514 1520 1524 1529 1535 1541 1544 1546 1549 1551 1555 1559 1563 1568 1571 1575 1578 1579 1580 1581 1585 1586 1587
1478 1474 1469 1470 1478 1474 1475 1487 1524 1529 1530 1531 1503 1506 1505 1487 1485 1488 1490 1496 1502 1508 1514 1520 1522 1528 1535 1540 1542 1545 1549 1553 1557 1560 1565 1569 1572 1575 1577 1577 1579 1581 1584 1587
1493 1499 1473 1468 1474 1480 1481 1488 1522 1531 1535 1528 1500 1515 1504 1499 1495 1491 1491 1493 1501 1507 1510 1515 1518 1524 1530 1534 1538 1541 1544 1548 1553 1557 1562 1566 1569 1571 1574 1577 1579 1581 1583 1586
1489 1484 1465 1465 1467 1472 1482 1493 1478 1498 1498 1521 1518 1506 1488 1491 1498 1496 1496 1495 1497 1503 1509 1510 1513 1519 1526 1529 1529 1533 1540 1543 1547 1552 1557 1562 1566 1569 1572 1575 1578 1581 1582 1584
1474 1491 1465 1463 1465 1468 1475 1473 1502 1506 1529 1529 1525 1522 1520 1504 1505 1501 1500 1504 1504 1498 1505 1507 1509 1513 1519 1526 1525 1529 1535 1538 1542 1547 1552 1557 1561 1565 1569 1572 1575 1577 1579 1581
1470 1481 1476 1465 1486 1489 1490 1493 1493 1509 1525 1535 1542 1532 1509 1516 1513 1507 1503 1508 1500 1501 1500 1502 1505 1508 1515 1522 1526 1528 1532 1535 1538 1543 1547 1552 1557 1561 1565 1568 1572 1575 1577 1578
1474 1479 1498 1499 1484 1479 1480 1488 1492 1519 1530 1530 1534 1526 1504 1511 1509 1509 1512 1501 1496 1497 1496 1498 1500 1505 1512 1518 1524 1530 1531 1533 1534 1537 1543 1548 1554 1558 1562 1565 1569 1572 1573 1575
1476 1490 1511 1510 1495 1485 1490 1487 1486 1493 1509 1526 1535 1523 1504 1501 1501 1504 1494 1509 1504 1499 1500 1498 1504 1505 1509 1516 1518 1524 1534 1533 1534 1534 1539 1545 1549 1553 1558 1562 1565 1568 1570 1572
1476 1484 1496 1513 1504 1493 1496 1487 1486 1495 1514 1517 1516 1513 1504 1506 1504 1508 1509 1485 1497 1498 1494 1501 1506 1507 1512 1513 1515 1518 1519 1533 1536 1536 1536 1541 1546 1548 1551 1557 1562 1564 1567 1568
1476 1492 1483 1482 1479 1484 1486 1485 1484 1495 1498 1508 1505 1500 1504 1504 1502 1502 1501 1500 1499 1496 1497 1498 1503 1505 1509 1513 1518 1517 1502 1526 1532 1532 1538 1539 1544 1547 1549 1550 1554 1559 1562 1564
1471 1489 1480 1486 1474 1481 1489 1488 1482 1493 1497 1500 1500 1507 1503 1505 1504 1504 1500 1501 1502 1501 1504 1506 1508 1508 1509 1511 1510 1507 1515 1528 1527 1530 1535 1537 1543 1546 1548 1550 1550 1552 1556 1558
1474 1483 1491 1500 1480 1479 1497 1489 1485 1487 1496 1495 1506 1501 1505 1508 1506 1506 1504 1502 1499 1501 1503 1506 1509 1510 1510 1509 1506 1508 1514 1519 1526 1525 1523 1536 1540 1543 1546 1548 1548 1548 1551 1554
1474 1480 1487 1502 1493 1515 1488 1477 1476 1480 1486 1495 1498 1498 1500 1505 1506 1504 1504 1501 1500 1503 1505 1506 1509 1512 1514 1514 1513 1514 1520 1523 1519 1519 1521 1530 1534 1538 1540 1541 1543 1545 1547 1550
1467 1477 1492 1505 1506 1489 1483 1477 1476 1481 1503 1495 1503 1502 1504 1503 1504 1504 1505 1505 1502 1500 1505 1507 1508 1512 1515 1518 1518 1519 1521 1520 1520 1520 1522 1520 1527 1532 1536 1537 1536 1539 1541 1544
1466 1469 1487 1494 1507 1511 1490 1474 1474 1476 1509 1502 1501 1506 1506 1503 1506 1507 1508 1509 1509 1505 1507 1507 1508 1509 1512 1515 1517 1517 1519 1520 1520 1518 1519 1523 1523 1526 1526 1529 1531 1530 1534 1538
1479 1481 1490 1496 1499 1491 1478 1477 1476 1495 1505 1499 1501 1506 1505 1509 1507 1508 1507 1508 1510 1508 1509 1509 1508 1508 1509 1511 1511 1511 1509 1510 1512 1512 1512 1516 1521 1523 1522 1523 1525 1526 1529 1530
1484 1491 1494 1490 1493 1505 1478 1479 1490 1487 1484 1494 1498 1497 1496 1500 1506 1510 1510 1511 1510 1509 1508 1509 1511 1509 1506 1507 1506 1507 1506 1506 1506 1509 1511 1514 1515 1518 1516 1520 1523 1524 1526 1525
1482 1476 1483 1484 1490 1477 1478 1481 1483 1485 1487 1489 1492 1495 1497 1502 1507 1509 1511 1512 1510 1512 1513 1513 1512 1508 1506 1505 1504 1505 1507 1508 1508 1510 1510 1511 1513 1515 1515 1516 1518 1520 1522 1522
1471 1469 1480 1479 1480 1479 1479 1482 1484 1485 1487 1493 1495 1497 1498 1501 1506 1508 1510 1511 1511 1513 1513 1513 1512 1509 1507 1507 1506 1507 1508 1509 1509 1509 1510 1510 1513 1515 1516 1518 1517 1520 1521 1522
1479 1476 1476 1479 1477 1477 1482 1483 1484 1488 1490 1492 1494 1497 1500 1502 1504 1506 1507 1510 1514 1515 1515 1515 1512 1511 1509 1508 1508 1508 1510 1510 1511 1512 1512 1512 1511 1514 1515 1516 1519 1523 1524 1524
1476 1476 1480 1483 1478 1480 1481 1481 1484 1486 1489 1492 1495 1499 1502 1504 1507 1507 1508 1511 1513 1513 1514 1514 1513 1511 1511 1511 1511 1510 1511 1510 1511 1513 1513 1514 1515 1516 1517 1517 1521 1522 1522 1523